GEFSSE_prec_meanprecacc_258.txt.gz
Total_Precipitation_Accumulation
0.14 0.19 0.42 0.55 0.56 0.49 0.46 0.41 0.35 0.32 0.33 0.37 0.36 0.34 0.34 0.35 0.33 0.30 0.31 0.34 0.45 0.54 0.62 0.64 0.69 0.75 0.73 0.63 0.45 0.29 0.20 0.18 0.14 0.11 0.12 0.14 0.17 0.20 0.20 0.21 0.24 0.31 0.37
0.13 0.20 0.44 0.58 0.60 0.50 0.46 0.44 0.39 0.36 0.35 0.38 0.42 0.41 0.39 0.39 0.42 0.43 0.41 0.43 0.50 0.57 0.65 0.71 0.77 0.77 0.71 0.54 0.34 0.22 0.12 0.09 0.06 0.03 0.03 0.05 0.10 0.17 0.18 0.16 0.18 0.31 0.37
0.19 0.27 0.45 0.61 0.61 0.55 0.49 0.43 0.39 0.39 0.41 0.45 0.48 0.48 0.46 0.45 0.47 0.53 0.55 0.52 0.52 0.55 0.64 0.72 0.71 0.67 0.59 0.40 0.25 0.18 0.11 0.08 0.05 0.03 0.04 0.08 0.14 0.23 0.22 0.19 0.25 0.34 0.39
0.26 0.31 0.45 0.62 0.66 0.63 0.55 0.45 0.44 0.46 0.47 0.54 0.57 0.57 0.59 0.58 0.57 0.55 0.57 0.54 0.51 0.50 0.56 0.58 0.49 0.43 0.38 0.27 0.20 0.15 0.11 0.08 0.06 0.05 0.09 0.14 0.20 0.36 0.36 0.31 0.31 0.33 0.36
0.39 0.40 0.55 0.72 0.78 0.75 0.65 0.56 0.51 0.52 0.55 0.57 0.63 0.68 0.71 0.74 0.68 0.60 0.55 0.52 0.48 0.42 0.38 0.35 0.32 0.28 0.25 0.22 0.18 0.13 0.09 0.07 0.06 0.06 0.09 0.16 0.27 0.52 0.45 0.37 0.36 0.39 0.39
0.52 0.57 0.73 0.90 0.97 0.96 0.81 0.70 0.65 0.63 0.63 0.65 0.66 0.71 0.78 0.85 0.83 0.72 0.58 0.44 0.39 0.35 0.31 0.26 0.24 0.23 0.20 0.17 0.14 0.12 0.11 0.08 0.05 0.06 0.10 0.17 0.29 0.52 0.45 0.39 0.36 0.38 0.40
0.53 0.66 0.84 1.07 1.13 1.13 1.00 0.90 0.87 0.81 0.78 0.76 0.74 0.77 0.82 0.83 0.78 0.71 0.52 0.39 0.33 0.32 0.31 0.27 0.24 0.24 0.22 0.18 0.14 0.13 0.11 0.08 0.06 0.07 0.11 0.17 0.31 0.51 0.46 0.40 0.36 0.37 0.38
0.58 0.74 0.94 1.20 1.23 1.21 1.15 1.04 1.01 1.01 0.97 0.92 0.88 0.88 0.89 0.86 0.77 0.65 0.53 0.44 0.36 0.34 0.34 0.31 0.27 0.25 0.25 0.23 0.19 0.16 0.12 0.08 0.06 0.07 0.10 0.13 0.25 0.39 0.36 0.33 0.32 0.33 0.34
0.82 0.92 1.07 1.27 1.36 1.37 1.27 1.13 1.06 1.08 1.09 1.06 0.99 0.92 0.84 0.79 0.75 0.65 0.54 0.48 0.43 0.39 0.37 0.33 0.31 0.28 0.27 0.26 0.24 0.18 0.12 0.08 0.07 0.07 0.08 0.10 0.18 0.29 0.29 0.30 0.32 0.34 0.36
1.17 1.22 1.31 1.38 1.40 1.39 1.31 1.20 1.15 1.12 1.14 1.18 1.11 0.91 0.78 0.71 0.69 0.65 0.53 0.48 0.44 0.41 0.39 0.34 0.32 0.29 0.28 0.25 0.21 0.16 0.13 0.11 0.08 0.06 0.07 0.09 0.15 0.23 0.26 0.30 0.31 0.35 0.37
1.61 1.52 1.55 1.57 1.55 1.53 1.46 1.32 1.26 1.18 1.15 1.16 1.12 0.93 0.81 0.77 0.69 0.61 0.48 0.40 0.40 0.39 0.38 0.37 0.35 0.30 0.26 0.21 0.18 0.17 0.16 0.14 0.11 0.11 0.11 0.12 0.18 0.27 0.31 0.33 0.31 0.34 0.36
1.87 1.76 1.67 1.64 1.58 1.61 1.58 1.48 1.44 1.28 1.16 1.11 0.98 0.94 0.88 0.80 0.69 0.57 0.50 0.44 0.41 0.38 0.38 0.41 0.41 0.36 0.27 0.19 0.17 0.17 0.16 0.15 0.15 0.13 0.13 0.17 0.27 0.37 0.38 0.36 0.33 0.34 0.35
2.01 2.00 1.92 1.84 1.73 1.63 1.68 1.57 1.49 1.40 1.26 1.17 1.02 0.98 0.95 0.92 0.82 0.74 0.64 0.63 0.57 0.46 0.45 0.43 0.45 0.35 0.24 0.18 0.16 0.14 0.14 0.16 0.16 0.15 0.14 0.17 0.27 0.39 0.42 0.41 0.39 0.38 0.37
2.22 2.16 2.15 2.06 2.00 1.81 1.72 1.66 1.61 1.49 1.36 1.21 1.05 0.99 0.98 0.91 0.82 0.73 0.62 0.60 0.62 0.49 0.46 0.44 0.39 0.31 0.26 0.20 0.16 0.15 0.14 0.14 0.14 0.16 0.17 0.17 0.23 0.34 0.41 0.44 0.44 0.41 0.41
2.50 2.46 2.38 2.21 2.15 2.06 1.85 1.70 1.67 1.64 1.54 1.38 1.28 1.12 1.01 0.90 0.75 0.67 0.61 0.61 0.60 0.52 0.46 0.45 0.38 0.35 0.32 0.28 0.22 0.18 0.15 0.14 0.14 0.15 0.17 0.17 0.20 0.26 0.35 0.41 0.46 0.48 0.51
2.68 2.75 2.69 2.49 2.27 2.19 1.99 1.73 1.65 1.71 1.69 1.66 1.48 1.26 1.21 1.08 0.91 0.77 0.69 0.66 0.61 0.56 0.52 0.48 0.42 0.41 0.39 0.35 0.28 0.22 0.20 0.18 0.17 0.16 0.16 0.18 0.19 0.20 0.28 0.39 0.47 0.53 0.59
2.60 2.82 2.88 2.76 2.59 2.36 2.21 1.98 1.74 1.80 1.83 1.80 1.66 1.46 1.38 1.32 1.18 1.01 0.86 0.74 0.63 0.60 0.60 0.62 0.60 0.55 0.48 0.43 0.35 0.29 0.25 0.23 0.21 0.18 0.17 0.17 0.18 0.19 0.24 0.33 0.41 0.49 0.55
2.61 2.69 2.90 2.90 2.84 2.69 2.48 2.25 1.93 1.82 1.85 1.80 1.68 1.57 1.45 1.39 1.32 1.22 1.04 0.89 0.79 0.75 0.73 0.71 0.69 0.65 0.56 0.49 0.43 0.40 0.35 0.30 0.25 0.25 0.23 0.20 0.19 0.18 0.21 0.28 0.33 0.38 0.46
2.58 2.63 2.80 2.90 2.93 2.99 2.90 2.71 2.35 2.02 1.98 1.93 1.80 1.61 1.51 1.44 1.38 1.32 1.19 1.05 1.01 0.94 0.82 0.76 0.73 0.68 0.65 0.60 0.56 0.50 0.45 0.39 0.35 0.36 0.35 0.31 0.28 0.26 0.24 0.28 0.30 0.31 0.37
2.77 2.84 2.84 2.95 3.14 3.30 3.39 3.20 2.94 2.48 2.18 2.03 1.89 1.73 1.60 1.52 1.45 1.39 1.34 1.24 1.16 1.14 1.05 0.93 0.83 0.78 0.73 0.68 0.65 0.61 0.57 0.51 0.45 0.42 0.40 0.38 0.37 0.35 0.33 0.34 0.33 0.32 0.32
2.82 2.98 3.01 2.94 3.11 3.41 3.36 3.13 2.86 2.57 2.34 2.12 1.98 1.86 1.74 1.64 1.54 1.44 1.32 1.35 1.34 1.26 1.20 1.13 1.09 1.02 0.95 0.91 0.90 0.79 0.66 0.60 0.54 0.47 0.45 0.44 0.42 0.41 0.40 0.41 0.39 0.37 0.37
2.60 2.92 2.95 3.02 3.14 3.33 3.27 3.17 3.08 2.93 2.70 2.45 2.28 2.00 1.82 1.70 1.60 1.54 1.41 1.30 1.35 1.38 1.30 1.25 1.25 1.25 1.20 1.16 1.16 1.12 0.95 0.78 0.60 0.50 0.49 0.49 0.49 0.52 0.54 0.52 0.50 0.47 0.45
2.06 2.51 2.71 2.75 2.94 3.11 3.32 3.61 3.60 3.42 3.03 2.56 2.26 2.10 1.95 1.91 1.81 1.66 1.63 1.53 1.39 1.41 1.37 1.28 1.19 1.19 1.21 1.22 1.21 1.30 1.20 0.94 0.73 0.60 0.51 0.49 0.49 0.52 0.55 0.55 0.54 0.51 0.48
1.67 2.06 2.43 2.62 2.74 2.80 2.93 3.25 3.39 3.26 2.87 2.48 2.23 2.19 2.20 2.12 2.09 2.00 1.86 1.78 1.64 1.53 1.47 1.45 1.40 1.31 1.28 1.28 1.24 1.16 1.10 0.98 0.94 0.79 0.61 0.54 0.52 0.53 0.55 0.55 0.53 0.53 0.55
1.40 1.77 2.11 2.38 2.59 2.62 2.57 2.73 3.00 3.15 3.05 2.85 2.59 2.42 2.32 2.24 2.13 2.09 2.02 1.95 1.81 1.69 1.64 1.64 1.59 1.54 1.50 1.42 1.36 1.27 1.21 1.07 0.97 0.98 0.80 0.62 0.61 0.60 0.61 0.61 0.59 0.58 0.59
1.19 1.44 1.74 2.01 2.34 2.51 2.47 2.55 2.66 2.75 2.90 2.86 2.59 2.51 2.41 2.39 2.28 2.12 2.02 1.98 1.93 1.85 1.78 1.77 1.78 1.71 1.61 1.55 1.52 1.45 1.43 1.35 1.16 1.13 1.05 0.83 0.77 0.70 0.70 0.70 0.71 0.71 0.70

GEFSSE_prec_meanprecacc_264.txt.gz
Total_Precipitation_Accumulation
0.14 0.20 0.44 0.56 0.58 0.51 0.47 0.43 0.36 0.34 0.35 0.38 0.37 0.35 0.35 0.37 0.35 0.31 0.31 0.35 0.45 0.56 0.63 0.66 0.72 0.76 0.75 0.64 0.47 0.30 0.21 0.19 0.15 0.12 0.12 0.14 0.18 0.21 0.20 0.21 0.25 0.32 0.38
0.13 0.21 0.45 0.59 0.62 0.52 0.48 0.45 0.40 0.38 0.38 0.41 0.44 0.42 0.40 0.40 0.44 0.44 0.42 0.44 0.51 0.59 0.66 0.73 0.79 0.78 0.73 0.56 0.36 0.23 0.13 0.09 0.06 0.03 0.03 0.05 0.11 0.17 0.18 0.16 0.19 0.33 0.38
0.19 0.27 0.46 0.63 0.63 0.58 0.52 0.45 0.40 0.40 0.43 0.48 0.50 0.50 0.48 0.47 0.48 0.54 0.56 0.54 0.54 0.57 0.65 0.74 0.73 0.69 0.60 0.41 0.26 0.18 0.11 0.08 0.05 0.03 0.04 0.09 0.15 0.24 0.23 0.20 0.26 0.36 0.41
0.26 0.32 0.46 0.64 0.68 0.65 0.58 0.48 0.46 0.48 0.49 0.57 0.60 0.60 0.62 0.60 0.60 0.57 0.59 0.57 0.53 0.52 0.57 0.59 0.49 0.44 0.39 0.28 0.21 0.16 0.12 0.08 0.06 0.05 0.10 0.15 0.21 0.38 0.38 0.32 0.32 0.35 0.38
0.40 0.41 0.57 0.74 0.81 0.78 0.68 0.59 0.54 0.55 0.57 0.61 0.67 0.73 0.76 0.77 0.71 0.63 0.58 0.55 0.50 0.44 0.39 0.36 0.33 0.28 0.26 0.22 0.18 0.13 0.10 0.07 0.06 0.06 0.10 0.17 0.30 0.55 0.47 0.38 0.38 0.41 0.41
0.52 0.58 0.74 0.92 1.00 0.99 0.84 0.73 0.69 0.66 0.66 0.67 0.70 0.76 0.83 0.90 0.86 0.74 0.60 0.46 0.40 0.36 0.32 0.27 0.25 0.24 0.21 0.18 0.15 0.13 0.11 0.08 0.05 0.07 0.11 0.17 0.32 0.55 0.47 0.41 0.38 0.40 0.42
0.54 0.67 0.86 1.10 1.17 1.17 1.05 0.95 0.91 0.87 0.83 0.79 0.77 0.81 0.87 0.87 0.81 0.73 0.54 0.40 0.34 0.34 0.32 0.28 0.24 0.25 0.23 0.19 0.15 0.14 0.12 0.08 0.06 0.08 0.12 0.18 0.33 0.54 0.49 0.43 0.38 0.39 0.39
0.58 0.75 0.97 1.25 1.28 1.26 1.20 1.09 1.06 1.06 1.03 0.98 0.93 0.92 0.93 0.89 0.80 0.68 0.55 0.46 0.38 0.35 0.35 0.32 0.28 0.26 0.26 0.23 0.20 0.16 0.12 0.08 0.06 0.07 0.10 0.14 0.27 0.42 0.40 0.35 0.33 0.34 0.35
0.84 0.95 1.11 1.33 1.42 1.44 1.34 1.20 1.12 1.13 1.15 1.12 1.04 0.96 0.88 0.82 0.77 0.67 0.56 0.50 0.45 0.40 0.38 0.34 0.32 0.28 0.28 0.27 0.25 0.18 0.12 0.08 0.07 0.07 0.08 0.11 0.19 0.31 0.31 0.31 0.33 0.35 0.37
1.20 1.26 1.35 1.42 1.44 1.44 1.38 1.27 1.20 1.16 1.18 1.23 1.16 0.96 0.82 0.74 0.73 0.68 0.54 0.50 0.46 0.43 0.40 0.35 0.33 0.30 0.29 0.26 0.22 0.16 0.13 0.11 0.08 0.06 0.08 0.09 0.16 0.25 0.27 0.32 0.32 0.36 0.38
1.63 1.55 1.59 1.61 1.59 1.58 1.52 1.37 1.34 1.25 1.20 1.21 1.17 0.98 0.85 0.82 0.74 0.66 0.51 0.42 0.42 0.41 0.39 0.39 0.36 0.31 0.26 0.21 0.18 0.17 0.16 0.14 0.11 0.11 0.11 0.13 0.19 0.28 0.32 0.35 0.33 0.35 0.37
1.89 1.79 1.70 1.67 1.63 1.66 1.63 1.54 1.54 1.38 1.23 1.17 1.03 0.99 0.93 0.84 0.74 0.61 0.55 0.47 0.43 0.40 0.40 0.43 0.41 0.36 0.27 0.19 0.17 0.17 0.16 0.15 0.15 0.14 0.14 0.18 0.28 0.39 0.40 0.38 0.34 0.35 0.36
2.02 2.02 1.94 1.86 1.77 1.68 1.73 1.62 1.56 1.49 1.33 1.23 1.08 1.04 1.01 0.97 0.86 0.77 0.69 0.66 0.59 0.48 0.47 0.44 0.46 0.35 0.24 0.18 0.16 0.15 0.14 0.17 0.17 0.15 0.14 0.17 0.28 0.41 0.44 0.43 0.41 0.40 0.38
2.24 2.18 2.17 2.09 2.03 1.85 1.76 1.71 1.66 1.55 1.41 1.26 1.11 1.06 1.05 0.96 0.86 0.77 0.65 0.63 0.64 0.50 0.47 0.45 0.39 0.32 0.27 0.21 0.16 0.15 0.14 0.15 0.15 0.17 0.18 0.18 0.25 0.36 0.43 0.46 0.46 0.43 0.42
2.51 2.47 2.40 2.23 2.17 2.08 1.88 1.73 1.71 1.70 1.58 1.42 1.32 1.18 1.07 0.95 0.78 0.72 0.66 0.64 0.62 0.54 0.46 0.45 0.38 0.35 0.33 0.28 0.22 0.18 0.16 0.15 0.15 0.16 0.17 0.18 0.21 0.27 0.36 0.43 0.50 0.55 0.57
2.69 2.77 2.70 2.51 2.29 2.21 2.01 1.75 1.68 1.76 1.74 1.71 1.54 1.30 1.26 1.14 0.96 0.81 0.74 0.70 0.64 0.59 0.53 0.49 0.42 0.41 0.39 0.36 0.28 0.23 0.20 0.19 0.17 0.17 0.17 0.18 0.20 0.21 0.29 0.40 0.52 0.61 0.66
2.62 2.84 2.90 2.77 2.61 2.38 2.23 2.01 1.77 1.83 1.86 1.82 1.70 1.52 1.44 1.38 1.24 1.06 0.91 0.78 0.67 0.63 0.62 0.63 0.61 0.56 0.49 0.43 0.36 0.30 0.26 0.25 0.22 0.19 0.18 0.18 0.19 0.20 0.25 0.35 0.45 0.52 0.59
2.63 2.70 2.92 2.92 2.86 2.71 2.51 2.28 1.96 1.84 1.87 1.82 1.70 1.61 1.53 1.47 1.39 1.29 1.11 0.94 0.84 0.80 0.77 0.74 0.72 0.67 0.58 0.49 0.43 0.40 0.36 0.31 0.27 0.26 0.24 0.21 0.20 0.19 0.22 0.29 0.35 0.40 0.49
2.60 2.65 2.81 2.91 2.94 3.01 2.93 2.75 2.38 2.05 1.99 1.94 1.81 1.62 1.55 1.52 1.45 1.38 1.25 1.12 1.08 1.00 0.88 0.81 0.76 0.70 0.67 0.61 0.57 0.50 0.46 0.40 0.37 0.38 0.37 0.33 0.30 0.27 0.25 0.29 0.31 0.32 0.38
2.79 2.86 2.86 2.97 3.16 3.32 3.42 3.25 2.97 2.51 2.20 2.05 1.91 1.74 1.62 1.56 1.52 1.46 1.39 1.29 1.20 1.19 1.10 0.98 0.87 0.81 0.76 0.71 0.67 0.63 0.58 0.52 0.47 0.45 0.44 0.42 0.41 0.38 0.35 0.35 0.34 0.33 0.33
2.84 2.99 3.03 2.96 3.13 3.43 3.38 3.16 2.89 2.59 2.36 2.14 2.00 1.88 1.76 1.66 1.58 1.51 1.40 1.41 1.38 1.29 1.23 1.17 1.12 1.05 0.97 0.93 0.92 0.81 0.68 0.61 0.56 0.49 0.48 0.47 0.45 0.45 0.43 0.43 0.41 0.39 0.38
2.61 2.93 2.96 3.04 3.16 3.35 3.29 3.18 3.10 2.95 2.72 2.47 2.29 2.01 1.83 1.72 1.63 1.59 1.49 1.38 1.41 1.43 1.34 1.29 1.28 1.28 1.22 1.19 1.18 1.15 0.97 0.80 0.61 0.51 0.50 0.51 0.51 0.54 0.57 0.55 0.52 0.49 0.47
2.07 2.52 2.72 2.76 2.96 3.13 3.33 3.62 3.61 3.44 3.05 2.58 2.27 2.11 1.95 1.92 1.83 1.69 1.68 1.61 1.47 1.47 1.42 1.32 1.23 1.23 1.25 1.27 1.25 1.33 1.23 0.96 0.74 0.60 0.52 0.50 0.50 0.53 0.56 0.57 0.56 0.54 0.52
1.68 2.07 2.44 2.64 2.76 2.81 2.94 3.25 3.40 3.26 2.88 2.49 2.23 2.19 2.20 2.13 2.10 2.02 1.89 1.83 1.71 1.60 1.53 1.49 1.44 1.36 1.33 1.32 1.29 1.21 1.13 1.00 0.95 0.80 0.62 0.55 0.53 0.53 0.56 0.56 0.53 0.54 0.56
1.41 1.78 2.13 2.40 2.61 2.63 2.58 2.74 3.01 3.16 3.05 2.86 2.60 2.42 2.32 2.25 2.14 2.10 2.04 1.98 1.86 1.75 1.70 1.69 1.62 1.57 1.53 1.46 1.39 1.31 1.25 1.10 0.98 0.99 0.81 0.62 0.62 0.61 0.62 0.62 0.60 0.59 0.59
1.20 1.46 1.76 2.04 2.36 2.53 2.48 2.56 2.67 2.75 2.90 2.86 2.60 2.52 2.41 2.39 2.28 2.13 2.03 2.00 1.96 1.90 1.84 1.82 1.82 1.74 1.64 1.57 1.54 1.49 1.45 1.38 1.18 1.14 1.05 0.83 0.78 0.71 0.71 0.71 0.72 0.72 0.71

GEFSSE_prec_meanprecacc_270.txt.gz
Total_Precipitation_Accumulation
0.15 0.20 0.45 0.57 0.59 0.53 0.50 0.45 0.39 0.37 0.39 0.42 0.40 0.38 0.37 0.38 0.37 0.33 0.33 0.36 0.47 0.59 0.66 0.69 0.73 0.78 0.77 0.66 0.48 0.30 0.22 0.19 0.16 0.13 0.13 0.15 0.18 0.22 0.22 0.24 0.27 0.34 0.40
0.13 0.21 0.46 0.60 0.63 0.54 0.50 0.47 0.43 0.42 0.42 0.46 0.49 0.46 0.42 0.42 0.45 0.46 0.45 0.47 0.54 0.62 0.69 0.75 0.81 0.80 0.75 0.58 0.38 0.24 0.13 0.10 0.07 0.04 0.03 0.05 0.11 0.18 0.19 0.17 0.20 0.34 0.41
0.19 0.28 0.47 0.64 0.64 0.59 0.54 0.47 0.42 0.43 0.47 0.52 0.54 0.54 0.51 0.50 0.50 0.56 0.58 0.58 0.59 0.61 0.69 0.77 0.75 0.71 0.62 0.43 0.27 0.19 0.12 0.08 0.05 0.04 0.06 0.10 0.16 0.25 0.25 0.21 0.28 0.37 0.42
0.27 0.32 0.47 0.65 0.68 0.66 0.59 0.50 0.48 0.51 0.53 0.61 0.64 0.64 0.66 0.64 0.62 0.60 0.62 0.60 0.56 0.55 0.59 0.61 0.52 0.46 0.40 0.29 0.22 0.17 0.12 0.09 0.06 0.06 0.12 0.17 0.23 0.40 0.39 0.34 0.34 0.36 0.40
0.41 0.42 0.58 0.74 0.82 0.79 0.69 0.61 0.57 0.59 0.61 0.65 0.72 0.78 0.81 0.83 0.76 0.68 0.62 0.58 0.52 0.46 0.40 0.37 0.33 0.29 0.27 0.23 0.19 0.14 0.10 0.08 0.07 0.08 0.11 0.19 0.31 0.57 0.48 0.40 0.39 0.42 0.43
0.53 0.59 0.76 0.93 1.01 1.01 0.85 0.75 0.71 0.69 0.70 0.71 0.74 0.81 0.88 0.96 0.93 0.79 0.64 0.49 0.42 0.38 0.33 0.28 0.26 0.25 0.21 0.18 0.15 0.13 0.12 0.08 0.06 0.08 0.12 0.19 0.34 0.58 0.48 0.42 0.39 0.41 0.43
0.55 0.68 0.88 1.11 1.18 1.19 1.08 0.97 0.93 0.90 0.87 0.83 0.82 0.86 0.93 0.93 0.86 0.77 0.57 0.43 0.38 0.36 0.34 0.29 0.26 0.27 0.24 0.20 0.15 0.14 0.12 0.08 0.07 0.09 0.13 0.20 0.36 0.57 0.51 0.44 0.39 0.40 0.40
0.60 0.78 0.99 1.27 1.31 1.29 1.24 1.12 1.09 1.10 1.08 1.03 0.98 0.98 0.99 0.95 0.85 0.72 0.59 0.48 0.41 0.38 0.37 0.34 0.30 0.28 0.27 0.24 0.20 0.17 0.13 0.08 0.07 0.08 0.11 0.16 0.29 0.45 0.42 0.36 0.34 0.36 0.36
0.86 0.98 1.15 1.37 1.45 1.47 1.38 1.24 1.17 1.18 1.20 1.16 1.09 1.03 0.95 0.88 0.82 0.71 0.59 0.53 0.47 0.43 0.41 0.36 0.34 0.30 0.29 0.28 0.25 0.18 0.12 0.08 0.08 0.08 0.09 0.12 0.21 0.33 0.32 0.33 0.34 0.36 0.38
1.23 1.31 1.40 1.47 1.49 1.49 1.42 1.30 1.24 1.19 1.23 1.27 1.20 1.00 0.86 0.79 0.78 0.72 0.57 0.52 0.48 0.45 0.43 0.38 0.35 0.31 0.29 0.27 0.22 0.16 0.13 0.11 0.08 0.07 0.09 0.10 0.17 0.27 0.29 0.33 0.34 0.37 0.39
1.68 1.61 1.65 1.66 1.65 1.63 1.56 1.40 1.38 1.29 1.25 1.25 1.21 1.01 0.88 0.86 0.79 0.71 0.55 0.46 0.45 0.44 0.42 0.41 0.37 0.32 0.27 0.22 0.18 0.17 0.16 0.14 0.11 0.12 0.12 0.14 0.21 0.31 0.35 0.37 0.34 0.36 0.38
1.93 1.83 1.75 1.73 1.69 1.73 1.68 1.60 1.62 1.46 1.30 1.21 1.07 1.02 0.98 0.91 0.80 0.67 0.60 0.51 0.47 0.43 0.43 0.45 0.43 0.38 0.29 0.20 0.17 0.17 0.17 0.16 0.16 0.14 0.15 0.19 0.30 0.40 0.43 0.40 0.36 0.37 0.38
2.05 2.06 1.99 1.93 1.84 1.75 1.81 1.70 1.64 1.58 1.41 1.31 1.14 1.09 1.08 1.06 0.95 0.85 0.74 0.71 0.64 0.52 0.50 0.47 0.48 0.37 0.26 0.19 0.16 0.15 0.15 0.17 0.17 0.16 0.15 0.18 0.30 0.42 0.46 0.46 0.44 0.43 0.41
2.28 2.23 2.22 2.15 2.09 1.91 1.83 1.77 1.72 1.62 1.48 1.34 1.19 1.14 1.12 1.06 0.97 0.86 0.72 0.69 0.69 0.55 0.52 0.48 0.42 0.35 0.28 0.22 0.17 0.16 0.15 0.16 0.16 0.18 0.18 0.18 0.26 0.37 0.45 0.48 0.48 0.46 0.46
2.56 2.52 2.45 2.29 2.23 2.14 1.95 1.80 1.78 1.77 1.64 1.48 1.38 1.25 1.13 1.02 0.88 0.81 0.74 0.72 0.71 0.62 0.54 0.50 0.41 0.39 0.35 0.30 0.23 0.19 0.17 0.16 0.15 0.17 0.18 0.18 0.22 0.29 0.38 0.45 0.52 0.58 0.60
2.74 2.82 2.76 2.56 2.35 2.27 2.07 1.81 1.75 1.83 1.81 1.79 1.61 1.36 1.31 1.21 1.04 0.91 0.82 0.78 0.73 0.67 0.61 0.55 0.47 0.45 0.43 0.38 0.30 0.24 0.22 0.20 0.18 0.18 0.18 0.19 0.20 0.22 0.31 0.43 0.55 0.65 0.69
2.66 2.89 2.95 2.82 2.66 2.44 2.30 2.07 1.84 1.90 1.93 1.89 1.77 1.59 1.50 1.44 1.32 1.16 1.01 0.87 0.75 0.70 0.69 0.69 0.67 0.61 0.53 0.46 0.37 0.32 0.28 0.26 0.23 0.20 0.20 0.20 0.19 0.21 0.26 0.37 0.47 0.55 0.62
2.68 2.76 2.97 2.96 2.90 2.75 2.55 2.32 2.02 1.90 1.93 1.88 1.74 1.66 1.58 1.51 1.44 1.35 1.16 1.02 0.94 0.90 0.86 0.81 0.78 0.74 0.63 0.53 0.45 0.42 0.37 0.32 0.28 0.27 0.26 0.23 0.21 0.20 0.22 0.31 0.37 0.41 0.51
2.65 2.70 2.87 2.95 2.98 3.04 2.96 2.78 2.42 2.09 2.04 2.00 1.87 1.66 1.60 1.56 1.48 1.41 1.27 1.14 1.12 1.09 0.99 0.89 0.83 0.76 0.71 0.65 0.59 0.53 0.48 0.42 0.39 0.40 0.39 0.36 0.32 0.28 0.26 0.31 0.32 0.33 0.40
2.84 2.91 2.92 3.02 3.20 3.35 3.44 3.28 3.01 2.53 2.23 2.09 1.96 1.79 1.65 1.59 1.54 1.48 1.40 1.30 1.22 1.23 1.17 1.07 0.96 0.89 0.81 0.75 0.70 0.66 0.61 0.55 0.49 0.48 0.46 0.45 0.44 0.40 0.37 0.36 0.36 0.34 0.34
2.88 3.04 3.09 3.01 3.17 3.46 3.40 3.19 2.92 2.61 2.38 2.16 2.02 1.91 1.79 1.70 1.61 1.53 1.41 1.42 1.39 1.31 1.26 1.23 1.19 1.14 1.05 0.99 0.96 0.84 0.70 0.63 0.58 0.52 0.51 0.50 0.48 0.48 0.47 0.45 0.43 0.40 0.39
2.64 2.96 3.00 3.08 3.19 3.37 3.32 3.21 3.12 2.97 2.73 2.49 2.32 2.04 1.87 1.75 1.66 1.61 1.51 1.39 1.42 1.44 1.37 1.34 1.33 1.33 1.29 1.25 1.22 1.18 1.00 0.82 0.63 0.53 0.52 0.53 0.54 0.57 0.60 0.59 0.55 0.51 0.48
2.10 2.55 2.75 2.79 3.00 3.16 3.37 3.65 3.64 3.46 3.07 2.60 2.31 2.15 1.98 1.95 1.85 1.70 1.69 1.62 1.48 1.48 1.44 1.36 1.29 1.28 1.30 1.32 1.29 1.37 1.25 0.98 0.75 0.61 0.53 0.51 0.52 0.55 0.58 0.61 0.60 0.58 0.54
1.70 2.10 2.48 2.67 2.80 2.85 2.98 3.29 3.43 3.29 2.89 2.50 2.26 2.25 2.26 2.16 2.12 2.03 1.90 1.84 1.71 1.61 1.54 1.52 1.50 1.42 1.39 1.37 1.34 1.25 1.17 1.03 0.97 0.82 0.63 0.57 0.55 0.55 0.58 0.59 0.56 0.57 0.60
1.44 1.81 2.16 2.44 2.65 2.67 2.62 2.77 3.04 3.18 3.07 2.87 2.61 2.45 2.39 2.30 2.17 2.12 2.05 1.99 1.87 1.75 1.71 1.71 1.66 1.63 1.59 1.50 1.43 1.34 1.29 1.12 1.01 1.02 0.82 0.64 0.64 0.62 0.64 0.64 0.62 0.60 0.61
1.23 1.49 1.80 2.08 2.41 2.58 2.52 2.59 2.70 2.78 2.92 2.88 2.61 2.53 2.44 2.46 2.35 2.17 2.06 2.02 1.97 1.90 1.84 1.84 1.85 1.79 1.70 1.62 1.58 1.52 1.48 1.40 1.20 1.16 1.08 0.85 0.79 0.72 0.72 0.72 0.73 0.73 0.72

GEFSSE_prec_meanprecacc_276.txt.gz
Total_Precipitation_Accumulation
0.15 0.20 0.46 0.59 0.60 0.55 0.52 0.47 0.42 0.40 0.41 0.44 0.43 0.40 0.40 0.39 0.38 0.34 0.34 0.38 0.49 0.62 0.68 0.70 0.74 0.79 0.79 0.67 0.49 0.31 0.22 0.20 0.16 0.13 0.13 0.16 0.19 0.24 0.24 0.25 0.28 0.35 0.44
0.14 0.22 0.47 0.62 0.64 0.55 0.51 0.49 0.45 0.44 0.44 0.47 0.52 0.50 0.45 0.44 0.47 0.47 0.46 0.50 0.58 0.66 0.71 0.77 0.82 0.82 0.77 0.59 0.39 0.26 0.13 0.10 0.07 0.04 0.03 0.06 0.12 0.19 0.20 0.18 0.21 0.36 0.43
0.20 0.28 0.47 0.65 0.65 0.60 0.54 0.48 0.44 0.45 0.49 0.55 0.58 0.60 0.54 0.52 0.52 0.58 0.60 0.60 0.62 0.65 0.71 0.79 0.78 0.74 0.64 0.44 0.28 0.21 0.13 0.09 0.06 0.04 0.06 0.11 0.17 0.27 0.26 0.22 0.29 0.38 0.43
0.27 0.33 0.47 0.66 0.69 0.67 0.60 0.51 0.49 0.52 0.55 0.63 0.68 0.70 0.70 0.67 0.65 0.63 0.64 0.62 0.60 0.60 0.61 0.63 0.53 0.48 0.42 0.31 0.23 0.19 0.14 0.10 0.07 0.07 0.12 0.18 0.25 0.42 0.41 0.35 0.35 0.37 0.41
0.42 0.43 0.59 0.76 0.83 0.80 0.70 0.61 0.57 0.60 0.63 0.67 0.75 0.84 0.86 0.86 0.78 0.70 0.64 0.60 0.55 0.51 0.42 0.38 0.34 0.31 0.28 0.25 0.20 0.16 0.12 0.09 0.07 0.08 0.11 0.19 0.33 0.60 0.50 0.41 0.40 0.43 0.44
0.55 0.61 0.78 0.96 1.04 1.03 0.86 0.76 0.72 0.70 0.71 0.73 0.77 0.85 0.93 1.00 0.96 0.82 0.65 0.51 0.45 0.42 0.36 0.29 0.26 0.25 0.22 0.19 0.17 0.15 0.12 0.09 0.06 0.08 0.12 0.19 0.35 0.61 0.50 0.43 0.40 0.42 0.44
0.57 0.70 0.91 1.15 1.22 1.22 1.10 0.99 0.95 0.92 0.89 0.86 0.85 0.90 0.95 0.97 0.90 0.79 0.59 0.46 0.42 0.41 0.38 0.30 0.27 0.27 0.25 0.21 0.16 0.15 0.12 0.09 0.07 0.09 0.13 0.20 0.38 0.60 0.53 0.46 0.40 0.41 0.41
0.62 0.80 1.03 1.31 1.35 1.33 1.28 1.16 1.12 1.14 1.12 1.06 1.02 1.02 1.03 1.00 0.88 0.74 0.61 0.51 0.44 0.42 0.42 0.35 0.31 0.28 0.28 0.25 0.21 0.17 0.13 0.08 0.07 0.08 0.11 0.17 0.32 0.49 0.44 0.37 0.35 0.36 0.37
0.88 1.01 1.19 1.41 1.50 1.53 1.43 1.28 1.21 1.21 1.22 1.18 1.11 1.05 0.97 0.91 0.85 0.74 0.61 0.56 0.50 0.46 0.47 0.40 0.35 0.31 0.30 0.29 0.26 0.18 0.12 0.08 0.08 0.08 0.09 0.13 0.24 0.38 0.36 0.34 0.36 0.37 0.39
1.26 1.34 1.44 1.52 1.54 1.55 1.48 1.36 1.28 1.22 1.24 1.29 1.21 1.02 0.88 0.81 0.82 0.75 0.60 0.55 0.51 0.49 0.47 0.42 0.36 0.32 0.30 0.27 0.22 0.16 0.13 0.11 0.09 0.07 0.09 0.11 0.20 0.30 0.32 0.35 0.35 0.38 0.40
1.73 1.66 1.70 1.71 1.70 1.68 1.61 1.45 1.43 1.34 1.27 1.27 1.23 1.03 0.89 0.87 0.82 0.74 0.58 0.47 0.47 0.46 0.45 0.44 0.39 0.33 0.28 0.23 0.18 0.17 0.17 0.14 0.12 0.12 0.12 0.15 0.24 0.34 0.38 0.39 0.36 0.38 0.40
1.98 1.89 1.82 1.80 1.74 1.77 1.72 1.63 1.66 1.52 1.36 1.24 1.08 1.03 0.98 0.91 0.81 0.68 0.61 0.52 0.48 0.44 0.45 0.48 0.46 0.40 0.31 0.22 0.19 0.19 0.17 0.16 0.16 0.14 0.15 0.20 0.33 0.44 0.46 0.43 0.39 0.40 0.41
2.11 2.13 2.08 2.01 1.90 1.80 1.87 1.75 1.68 1.63 1.48 1.36 1.17 1.11 1.09 1.07 0.96 0.85 0.75 0.72 0.65 0.53 0.52 0.50 0.51 0.40 0.28 0.21 0.18 0.17 0.15 0.17 0.18 0.16 0.15 0.19 0.32 0.46 0.50 0.50 0.46 0.45 0.44
2.37 2.32 2.32 2.24 2.17 1.98 1.90 1.86 1.80 1.68 1.54 1.39 1.22 1.16 1.15 1.08 0.99 0.88 0.75 0.71 0.70 0.56 0.53 0.50 0.44 0.36 0.30 0.24 0.19 0.17 0.16 0.17 0.16 0.18 0.18 0.19 0.28 0.41 0.49 0.53 0.52 0.48 0.48
2.64 2.61 2.55 2.39 2.31 2.22 2.03 1.89 1.87 1.85 1.71 1.54 1.42 1.27 1.15 1.04 0.91 0.85 0.79 0.77 0.74 0.64 0.55 0.52 0.43 0.41 0.37 0.31 0.25 0.21 0.18 0.17 0.16 0.17 0.18 0.18 0.22 0.32 0.44 0.50 0.57 0.61 0.62
2.80 2.89 2.86 2.67 2.45 2.37 2.16 1.90 1.84 1.93 1.91 1.86 1.66 1.40 1.35 1.23 1.07 0.94 0.87 0.82 0.77 0.71 0.64 0.58 0.49 0.48 0.46 0.42 0.34 0.27 0.24 0.22 0.20 0.19 0.19 0.20 0.21 0.23 0.34 0.47 0.60 0.70 0.73
2.72 2.95 3.04 2.92 2.77 2.54 2.39 2.16 1.94 2.01 2.04 2.00 1.85 1.64 1.55 1.48 1.35 1.20 1.05 0.93 0.80 0.75 0.74 0.74 0.71 0.65 0.58 0.51 0.43 0.36 0.31 0.28 0.24 0.21 0.20 0.20 0.20 0.21 0.27 0.39 0.51 0.61 0.67
2.75 2.83 3.07 3.06 3.00 2.86 2.64 2.41 2.10 2.00 2.03 1.97 1.81 1.71 1.64 1.56 1.50 1.41 1.21 1.08 1.01 0.97 0.91 0.87 0.84 0.79 0.68 0.58 0.50 0.46 0.41 0.36 0.30 0.29 0.27 0.24 0.22 0.20 0.23 0.32 0.39 0.45 0.56
2.72 2.79 2.96 3.05 3.09 3.15 3.06 2.87 2.50 2.18 2.14 2.09 1.93 1.71 1.64 1.60 1.53 1.48 1.34 1.21 1.20 1.16 1.06 0.97 0.91 0.84 0.77 0.70 0.64 0.57 0.52 0.47 0.44 0.43 0.41 0.37 0.33 0.29 0.27 0.32 0.35 0.36 0.44
2.91 3.00 3.02 3.12 3.31 3.45 3.54 3.35 3.08 2.61 2.32 2.21 2.08 1.85 1.69 1.63 1.58 1.52 1.44 1.35 1.28 1.31 1.26 1.15 1.02 0.94 0.86 0.80 0.75 0.71 0.67 0.60 0.54 0.51 0.49 0.47 0.46 0.41 0.38 0.38 0.37 0.35 0.36
2.95 3.13 3.19 3.13 3.27 3.55 3.48 3.26 2.97 2.67 2.45 2.25 2.15 2.05 1.86 1.74 1.65 1.57 1.44 1.45 1.41 1.33 1.31 1.31 1.28 1.21 1.10 1.04 1.01 0.88 0.74 0.68 0.63 0.56 0.55 0.53 0.51 0.50 0.48 0.47 0.44 0.42 0.41
2.69 3.03 3.09 3.20 3.32 3.48 3.40 3.28 3.18 3.02 2.79 2.56 2.41 2.15 1.98 1.82 1.71 1.66 1.55 1.42 1.44 1.45 1.38 1.36 1.38 1.40 1.37 1.33 1.30 1.24 1.04 0.85 0.67 0.57 0.56 0.56 0.57 0.60 0.61 0.60 0.56 0.52 0.50
2.15 2.60 2.81 2.89 3.13 3.29 3.47 3.73 3.71 3.52 3.12 2.65 2.37 2.24 2.08 2.02 1.91 1.75 1.73 1.64 1.50 1.50 1.45 1.37 1.30 1.29 1.34 1.40 1.41 1.47 1.32 1.03 0.78 0.64 0.57 0.54 0.55 0.58 0.60 0.62 0.61 0.59 0.56
1.75 2.16 2.54 2.76 2.91 2.96 3.08 3.37 3.49 3.33 2.94 2.54 2.29 2.30 2.35 2.27 2.20 2.09 1.95 1.87 1.73 1.62 1.55 1.53 1.51 1.43 1.40 1.39 1.39 1.33 1.24 1.08 1.03 0.87 0.67 0.61 0.58 0.58 0.60 0.61 0.58 0.58 0.61
1.47 1.87 2.23 2.51 2.76 2.77 2.71 2.87 3.13 3.25 3.12 2.91 2.64 2.48 2.45 2.41 2.30 2.21 2.12 2.04 1.89 1.77 1.72 1.72 1.67 1.64 1.60 1.51 1.44 1.37 1.33 1.16 1.03 1.03 0.84 0.66 0.67 0.65 0.66 0.66 0.63 0.62 0.64
1.26 1.55 1.88 2.16 2.50 2.70 2.61 2.68 2.79 2.87 2.98 2.92 2.64 2.55 2.48 2.51 2.44 2.28 2.15 2.09 2.02 1.94 1.86 1.85 1.86 1.80 1.71 1.63 1.59 1.53 1.50 1.43 1.22 1.18 1.08 0.86 0.80 0.74 0.74 0.74 0.75 0.75 0.74

GEFSSE_prec_meanprecacc_282.txt.gz
Total_Precipitation_Accumulation
0.15 0.21 0.48 0.62 0.64 0.60 0.56 0.49 0.44 0.41 0.43 0.46 0.45 0.42 0.41 0.41 0.40 0.36 0.36 0.39 0.51 0.64 0.71 0.73 0.79 0.83 0.82 0.70 0.50 0.32 0.24 0.21 0.17 0.14 0.15 0.17 0.21 0.25 0.25 0.26 0.29 0.36 0.45
0.14 0.23 0.49 0.64 0.68 0.58 0.53 0.50 0.46 0.45 0.46 0.49 0.56 0.53 0.48 0.46 0.50 0.49 0.48 0.51 0.60 0.68 0.73 0.79 0.86 0.86 0.80 0.61 0.40 0.26 0.14 0.10 0.07 0.04 0.04 0.06 0.13 0.21 0.22 0.20 0.22 0.37 0.44
0.20 0.29 0.49 0.67 0.68 0.63 0.56 0.49 0.45 0.46 0.51 0.57 0.61 0.62 0.57 0.55 0.55 0.61 0.62 0.62 0.64 0.67 0.73 0.81 0.82 0.77 0.67 0.47 0.30 0.22 0.13 0.09 0.06 0.04 0.06 0.11 0.19 0.30 0.28 0.24 0.30 0.39 0.45
0.28 0.35 0.50 0.69 0.72 0.70 0.63 0.53 0.51 0.53 0.56 0.65 0.70 0.72 0.72 0.69 0.68 0.66 0.66 0.63 0.62 0.62 0.63 0.65 0.56 0.51 0.45 0.34 0.27 0.21 0.15 0.10 0.07 0.07 0.12 0.19 0.27 0.45 0.43 0.37 0.37 0.39 0.42
0.44 0.45 0.62 0.80 0.87 0.83 0.73 0.65 0.60 0.62 0.65 0.69 0.77 0.87 0.89 0.88 0.80 0.73 0.66 0.61 0.57 0.53 0.44 0.39 0.36 0.33 0.30 0.27 0.24 0.18 0.13 0.09 0.07 0.08 0.12 0.20 0.35 0.62 0.52 0.42 0.42 0.44 0.45
0.58 0.63 0.82 1.01 1.09 1.07 0.90 0.80 0.76 0.73 0.74 0.75 0.79 0.88 0.96 1.03 0.98 0.85 0.68 0.53 0.47 0.44 0.38 0.30 0.27 0.27 0.24 0.22 0.19 0.16 0.13 0.09 0.07 0.08 0.12 0.19 0.36 0.62 0.51 0.45 0.41 0.43 0.45
0.60 0.73 0.94 1.20 1.28 1.28 1.14 1.02 0.99 0.95 0.91 0.87 0.88 0.92 0.98 1.00 0.93 0.82 0.62 0.48 0.44 0.43 0.40 0.32 0.28 0.28 0.27 0.24 0.17 0.15 0.13 0.09 0.07 0.09 0.13 0.20 0.38 0.61 0.54 0.47 0.41 0.42 0.42
0.65 0.83 1.06 1.36 1.41 1.40 1.35 1.22 1.17 1.18 1.15 1.08 1.04 1.05 1.06 1.03 0.91 0.78 0.65 0.54 0.47 0.45 0.45 0.38 0.33 0.30 0.30 0.26 0.21 0.17 0.13 0.09 0.07 0.08 0.11 0.17 0.34 0.51 0.46 0.39 0.37 0.38 0.39
0.93 1.06 1.24 1.47 1.58 1.62 1.51 1.37 1.28 1.26 1.25 1.20 1.13 1.07 0.99 0.93 0.88 0.78 0.65 0.59 0.53 0.50 0.51 0.44 0.37 0.33 0.32 0.30 0.26 0.19 0.12 0.08 0.08 0.08 0.09 0.13 0.27 0.42 0.39 0.37 0.38 0.39 0.40
1.32 1.41 1.51 1.59 1.61 1.63 1.56 1.44 1.36 1.28 1.28 1.32 1.24 1.04 0.89 0.83 0.85 0.79 0.62 0.58 0.54 0.51 0.51 0.46 0.40 0.34 0.31 0.28 0.23 0.17 0.13 0.12 0.09 0.07 0.09 0.12 0.23 0.35 0.36 0.39 0.40 0.40 0.41
1.80 1.74 1.78 1.78 1.77 1.76 1.70 1.55 1.53 1.43 1.34 1.32 1.27 1.05 0.90 0.88 0.83 0.78 0.61 0.50 0.49 0.49 0.47 0.47 0.42 0.36 0.29 0.24 0.19 0.18 0.17 0.14 0.12 0.12 0.13 0.16 0.27 0.38 0.41 0.43 0.41 0.42 0.42
2.04 1.96 1.91 1.87 1.80 1.83 1.79 1.72 1.76 1.62 1.43 1.30 1.14 1.06 1.00 0.92 0.82 0.70 0.64 0.54 0.50 0.47 0.48 0.52 0.49 0.43 0.32 0.23 0.21 0.20 0.18 0.16 0.16 0.14 0.15 0.22 0.37 0.49 0.49 0.46 0.42 0.44 0.43
2.16 2.19 2.15 2.09 1.98 1.87 1.94 1.83 1.78 1.74 1.59 1.45 1.23 1.17 1.13 1.10 0.99 0.88 0.78 0.74 0.67 0.55 0.53 0.52 0.53 0.41 0.29 0.23 0.20 0.18 0.16 0.18 0.18 0.16 0.15 0.21 0.36 0.51 0.56 0.54 0.50 0.48 0.47
2.41 2.37 2.38 2.31 2.26 2.07 1.97 1.93 1.89 1.79 1.66 1.49 1.29 1.21 1.20 1.12 1.03 0.91 0.77 0.73 0.72 0.57 0.55 0.52 0.45 0.37 0.31 0.25 0.21 0.19 0.17 0.18 0.16 0.19 0.19 0.19 0.30 0.45 0.56 0.61 0.57 0.52 0.52
2.69 2.66 2.60 2.45 2.39 2.30 2.12 1.96 1.96 1.96 1.82 1.64 1.51 1.34 1.20 1.08 0.94 0.88 0.81 0.79 0.75 0.65 0.57 0.54 0.45 0.43 0.39 0.33 0.27 0.23 0.20 0.19 0.17 0.18 0.19 0.19 0.23 0.34 0.48 0.61 0.68 0.67 0.66
2.86 2.95 2.92 2.73 2.51 2.43 2.23 1.97 1.91 2.03 2.02 1.98 1.75 1.48 1.41 1.28 1.11 0.99 0.90 0.85 0.80 0.73 0.66 0.60 0.51 0.50 0.48 0.44 0.35 0.28 0.25 0.24 0.22 0.21 0.20 0.21 0.22 0.24 0.36 0.53 0.71 0.77 0.77
2.80 3.03 3.11 2.99 2.83 2.60 2.45 2.23 2.00 2.09 2.14 2.12 1.98 1.75 1.64 1.55 1.40 1.26 1.11 0.97 0.84 0.79 0.79 0.78 0.74 0.68 0.60 0.53 0.44 0.38 0.33 0.30 0.26 0.23 0.22 0.22 0.21 0.22 0.29 0.42 0.58 0.70 0.73
2.82 2.92 3.15 3.14 3.07 2.92 2.70 2.47 2.18 2.08 2.12 2.09 1.95 1.85 1.75 1.64 1.56 1.46 1.26 1.11 1.05 1.02 0.97 0.95 0.91 0.84 0.72 0.60 0.51 0.48 0.43 0.37 0.32 0.30 0.29 0.26 0.23 0.21 0.24 0.34 0.42 0.51 0.64
2.78 2.87 3.05 3.15 3.18 3.23 3.13 2.94 2.57 2.25 2.23 2.21 2.04 1.81 1.73 1.68 1.61 1.54 1.38 1.24 1.24 1.21 1.12 1.05 1.02 0.95 0.86 0.76 0.69 0.61 0.55 0.49 0.45 0.44 0.42 0.39 0.34 0.30 0.28 0.33 0.36 0.38 0.47
2.97 3.08 3.12 3.23 3.42 3.56 3.65 3.44 3.15 2.68 2.40 2.32 2.20 1.95 1.75 1.69 1.65 1.59 1.50 1.39 1.31 1.34 1.31 1.23 1.12 1.05 0.98 0.90 0.83 0.76 0.71 0.63 0.57 0.54 0.52 0.48 0.47 0.42 0.39 0.39 0.38 0.36 0.38
3.02 3.21 3.28 3.23 3.40 3.67 3.58 3.34 3.06 2.75 2.53 2.35 2.28 2.17 1.94 1.79 1.70 1.61 1.50 1.50 1.46 1.37 1.34 1.35 1.35 1.30 1.21 1.14 1.11 0.96 0.79 0.72 0.66 0.59 0.57 0.55 0.53 0.52 0.49 0.48 0.45 0.43 0.42
2.75 3.10 3.16 3.29 3.43 3.61 3.50 3.36 3.25 3.12 2.89 2.66 2.53 2.29 2.11 1.92 1.76 1.70 1.58 1.45 1.48 1.49 1.40 1.39 1.41 1.46 1.47 1.46 1.44 1.36 1.14 0.92 0.71 0.59 0.58 0.58 0.59 0.62 0.64 0.62 0.58 0.53 0.51
2.21 2.66 2.87 2.97 3.24 3.42 3.57 3.82 3.79 3.61 3.22 2.75 2.47 2.34 2.20 2.17 2.03 1.83 1.78 1.68 1.52 1.52 1.47 1.38 1.32 1.32 1.38 1.47 1.52 1.61 1.47 1.14 0.86 0.70 0.61 0.57 0.57 0.60 0.63 0.66 0.64 0.62 0.58
1.80 2.21 2.59 2.81 3.01 3.13 3.24 3.47 3.58 3.42 3.03 2.63 2.38 2.38 2.43 2.36 2.33 2.21 2.05 1.94 1.78 1.66 1.58 1.54 1.52 1.45 1.42 1.42 1.43 1.40 1.36 1.22 1.14 0.97 0.76 0.67 0.62 0.61 0.63 0.64 0.61 0.61 0.65
1.53 1.93 2.29 2.57 2.82 2.89 2.91 3.03 3.24 3.33 3.19 2.99 2.72 2.56 2.53 2.48 2.37 2.30 2.22 2.13 1.97 1.83 1.76 1.75 1.69 1.65 1.61 1.53 1.46 1.39 1.37 1.22 1.10 1.10 0.92 0.73 0.72 0.70 0.70 0.69 0.66 0.65 0.67
1.32 1.60 1.94 2.24 2.57 2.77 2.74 2.87 2.97 2.99 3.08 3.01 2.73 2.63 2.54 2.59 2.51 2.36 2.23 2.17 2.10 2.01 1.92 1.89 1.88 1.82 1.72 1.65 1.61 1.55 1.52 1.46 1.26 1.22 1.12 0.89 0.84 0.78 0.77 0.76 0.77 0.77 0.76

GEFSSE_prec_meanprecacc_288.txt.gz
Total_Precipitation_Accumulation
0.16 0.22 0.50 0.65 0.69 0.65 0.61 0.55 0.49 0.46 0.47 0.50 0.49 0.45 0.43 0.43 0.41 0.37 0.37 0.41 0.53 0.66 0.73 0.77 0.83 0.88 0.87 0.75 0.54 0.34 0.25 0.23 0.19 0.16 0.16 0.18 0.22 0.27 0.27 0.27 0.29 0.38 0.47
0.15 0.24 0.51 0.67 0.72 0.62 0.58 0.55 0.51 0.49 0.49 0.53 0.60 0.56 0.50 0.48 0.51 0.51 0.49 0.52 0.61 0.70 0.76 0.82 0.90 0.91 0.83 0.64 0.43 0.28 0.15 0.11 0.08 0.04 0.04 0.07 0.14 0.22 0.22 0.21 0.22 0.38 0.46
0.21 0.31 0.52 0.71 0.71 0.67 0.61 0.54 0.50 0.50 0.54 0.59 0.63 0.65 0.59 0.56 0.57 0.63 0.64 0.63 0.66 0.69 0.76 0.84 0.85 0.82 0.71 0.49 0.31 0.23 0.14 0.10 0.07 0.04 0.06 0.12 0.20 0.31 0.29 0.24 0.31 0.41 0.46
0.29 0.36 0.52 0.73 0.77 0.74 0.67 0.58 0.55 0.57 0.59 0.67 0.73 0.76 0.76 0.72 0.70 0.68 0.68 0.66 0.64 0.64 0.66 0.67 0.59 0.55 0.48 0.36 0.28 0.22 0.16 0.11 0.08 0.07 0.13 0.19 0.28 0.47 0.45 0.38 0.38 0.40 0.43
0.46 0.47 0.65 0.84 0.92 0.88 0.79 0.70 0.65 0.67 0.69 0.72 0.81 0.90 0.93 0.92 0.84 0.76 0.69 0.64 0.59 0.55 0.46 0.42 0.39 0.36 0.32 0.28 0.25 0.19 0.13 0.09 0.07 0.08 0.12 0.20 0.36 0.64 0.53 0.44 0.43 0.45 0.45
0.60 0.65 0.85 1.05 1.14 1.13 0.97 0.86 0.81 0.78 0.78 0.79 0.83 0.91 1.00 1.07 1.03 0.88 0.71 0.56 0.49 0.45 0.40 0.32 0.30 0.31 0.27 0.24 0.20 0.17 0.13 0.09 0.07 0.08 0.12 0.19 0.36 0.64 0.53 0.47 0.43 0.44 0.46
0.64 0.77 0.98 1.24 1.34 1.35 1.22 1.09 1.05 1.00 0.95 0.92 0.92 0.96 1.02 1.04 0.97 0.86 0.66 0.51 0.46 0.45 0.42 0.34 0.31 0.31 0.29 0.25 0.19 0.16 0.13 0.09 0.07 0.09 0.13 0.21 0.39 0.63 0.56 0.49 0.44 0.44 0.43
0.69 0.88 1.12 1.41 1.48 1.48 1.43 1.30 1.26 1.25 1.20 1.13 1.08 1.09 1.09 1.06 0.94 0.82 0.69 0.58 0.50 0.47 0.47 0.41 0.36 0.33 0.32 0.27 0.22 0.18 0.13 0.09 0.07 0.08 0.11 0.18 0.35 0.52 0.47 0.41 0.40 0.41 0.41
0.97 1.11 1.31 1.55 1.66 1.71 1.60 1.44 1.37 1.34 1.32 1.25 1.18 1.11 1.03 0.97 0.91 0.81 0.68 0.62 0.57 0.53 0.53 0.47 0.41 0.37 0.34 0.31 0.27 0.19 0.12 0.09 0.08 0.09 0.10 0.14 0.29 0.44 0.41 0.39 0.40 0.42 0.42
1.39 1.48 1.59 1.67 1.70 1.72 1.66 1.52 1.45 1.38 1.37 1.38 1.30 1.08 0.93 0.86 0.89 0.82 0.64 0.59 0.56 0.54 0.54 0.49 0.44 0.39 0.35 0.30 0.24 0.18 0.13 0.12 0.09 0.08 0.10 0.13 0.25 0.38 0.40 0.42 0.41 0.43 0.44
1.88 1.82 1.86 1.87 1.87 1.85 1.79 1.65 1.64 1.55 1.45 1.41 1.34 1.10 0.95 0.93 0.87 0.81 0.63 0.50 0.50 0.51 0.50 0.50 0.45 0.40 0.32 0.26 0.21 0.19 0.18 0.15 0.12 0.13 0.14 0.18 0.30 0.43 0.46 0.47 0.43 0.44 0.45
2.12 2.04 1.99 1.97 1.90 1.93 1.88 1.83 1.88 1.73 1.55 1.40 1.21 1.13 1.06 0.97 0.87 0.73 0.66 0.56 0.52 0.49 0.51 0.55 0.52 0.46 0.35 0.25 0.22 0.21 0.19 0.17 0.16 0.15 0.16 0.24 0.40 0.52 0.52 0.49 0.45 0.47 0.46
2.22 2.27 2.23 2.19 2.08 1.97 2.02 1.91 1.89 1.86 1.70 1.55 1.32 1.23 1.20 1.17 1.05 0.92 0.81 0.78 0.70 0.58 0.56 0.55 0.56 0.44 0.31 0.24 0.21 0.19 0.18 0.19 0.18 0.17 0.17 0.24 0.40 0.54 0.58 0.57 0.53 0.51 0.49
2.48 2.47 2.48 2.42 2.35 2.14 2.04 1.99 1.97 1.90 1.77 1.62 1.39 1.29 1.27 1.18 1.08 0.96 0.82 0.77 0.75 0.59 0.57 0.54 0.48 0.40 0.33 0.27 0.22 0.20 0.19 0.20 0.18 0.20 0.20 0.21 0.34 0.48 0.59 0.64 0.61 0.56 0.54
2.74 2.75 2.71 2.55 2.49 2.38 2.19 2.03 2.02 2.05 1.94 1.77 1.62 1.41 1.27 1.15 1.00 0.94 0.87 0.85 0.79 0.68 0.59 0.55 0.47 0.44 0.41 0.35 0.28 0.23 0.21 0.20 0.19 0.19 0.20 0.20 0.25 0.37 0.52 0.63 0.72 0.72 0.70
2.92 3.04 3.02 2.84 2.61 2.51 2.30 2.03 1.97 2.09 2.12 2.10 1.86 1.57 1.48 1.35 1.18 1.06 0.99 0.95 0.87 0.78 0.70 0.62 0.54 0.52 0.50 0.46 0.38 0.29 0.26 0.24 0.23 0.22 0.22 0.22 0.23 0.26 0.39 0.57 0.74 0.82 0.81
2.85 3.12 3.24 3.12 2.94 2.69 2.52 2.28 2.04 2.13 2.20 2.21 2.09 1.86 1.72 1.62 1.48 1.33 1.21 1.08 0.94 0.87 0.85 0.82 0.77 0.70 0.63 0.56 0.49 0.42 0.34 0.30 0.27 0.24 0.23 0.23 0.23 0.24 0.31 0.46 0.62 0.74 0.77
2.85 2.98 3.27 3.28 3.20 3.03 2.78 2.54 2.23 2.13 2.17 2.13 2.04 1.96 1.84 1.71 1.62 1.53 1.33 1.20 1.14 1.10 1.04 1.00 0.95 0.87 0.75 0.64 0.56 0.55 0.47 0.38 0.33 0.32 0.30 0.27 0.24 0.22 0.25 0.36 0.45 0.54 0.66
2.81 2.92 3.17 3.30 3.30 3.34 3.22 3.01 2.65 2.32 2.29 2.25 2.09 1.91 1.84 1.76 1.67 1.60 1.44 1.30 1.30 1.26 1.17 1.09 1.06 0.98 0.89 0.79 0.72 0.67 0.64 0.53 0.47 0.45 0.43 0.40 0.35 0.30 0.29 0.34 0.37 0.40 0.49
3.01 3.14 3.21 3.38 3.55 3.70 3.73 3.52 3.24 2.78 2.46 2.37 2.24 2.01 1.86 1.77 1.71 1.65 1.56 1.45 1.36 1.39 1.35 1.26 1.15 1.09 1.02 0.94 0.87 0.81 0.79 0.73 0.61 0.57 0.54 0.50 0.48 0.43 0.40 0.40 0.39 0.37 0.39
3.06 3.26 3.37 3.38 3.54 3.83 3.70 3.41 3.14 2.86 2.61 2.40 2.32 2.22 2.02 1.88 1.76 1.67 1.55 1.55 1.51 1.42 1.39 1.39 1.38 1.34 1.25 1.20 1.18 1.02 0.86 0.82 0.76 0.64 0.60 0.57 0.55 0.54 0.50 0.49 0.46 0.43 0.42
2.80 3.16 3.23 3.42 3.58 3.76 3.65 3.46 3.33 3.21 2.99 2.72 2.60 2.36 2.19 2.02 1.86 1.76 1.62 1.49 1.52 1.53 1.46 1.44 1.46 1.51 1.52 1.51 1.50 1.45 1.23 1.02 0.82 0.66 0.62 0.61 0.61 0.64 0.66 0.63 0.58 0.54 0.51
2.28 2.74 2.94 3.08 3.38 3.57 3.71 3.96 3.90 3.71 3.33 2.83 2.55 2.43 2.28 2.26 2.13 1.91 1.84 1.72 1.56 1.55 1.50 1.43 1.37 1.36 1.43 1.52 1.56 1.66 1.53 1.22 0.95 0.80 0.68 0.62 0.61 0.63 0.65 0.67 0.65 0.62 0.58
1.88 2.31 2.70 2.93 3.15 3.29 3.39 3.60 3.70 3.52 3.14 2.71 2.45 2.47 2.51 2.45 2.42 2.29 2.11 2.00 1.83 1.70 1.61 1.57 1.55 1.49 1.46 1.46 1.47 1.44 1.39 1.25 1.19 1.05 0.84 0.74 0.67 0.65 0.67 0.67 0.63 0.63 0.66
1.63 2.04 2.42 2.70 2.95 3.06 3.11 3.19 3.38 3.44 3.30 3.09 2.79 2.64 2.62 2.57 2.48 2.39 2.28 2.18 2.02 1.89 1.82 1.79 1.72 1.69 1.66 1.57 1.50 1.43 1.39 1.24 1.12 1.14 0.99 0.81 0.78 0.74 0.73 0.73 0.70 0.69 0.70
1.43 1.73 2.09 2.37 2.70 2.90 2.93 3.10 3.17 3.13 3.19 3.13 2.82 2.71 2.63 2.68 2.61 2.45 2.29 2.21 2.13 2.04 1.96 1.94 1.93 1.86 1.77 1.69 1.65 1.58 1.56 1.49 1.28 1.24 1.16 0.96 0.90 0.83 0.81 0.80 0.81 0.81 0.81

GEFSSE_prec_meanprecacc_294.txt.gz
Total_Precipitation_Accumulation
0.18 0.24 0.52 0.68 0.72 0.68 0.65 0.60 0.53 0.50 0.51 0.53 0.52 0.49 0.46 0.45 0.43 0.39 0.38 0.42 0.55 0.69 0.76 0.80 0.87 0.93 0.90 0.78 0.57 0.36 0.27 0.24 0.20 0.17 0.17 0.19 0.24 0.29 0.30 0.30 0.32 0.39 0.50
0.16 0.26 0.53 0.70 0.75 0.65 0.61 0.59 0.56 0.53 0.53 0.56 0.63 0.59 0.52 0.50 0.53 0.53 0.52 0.55 0.63 0.73 0.81 0.86 0.93 0.94 0.87 0.67 0.45 0.29 0.16 0.12 0.08 0.05 0.05 0.07 0.15 0.24 0.25 0.23 0.24 0.40 0.48
0.22 0.33 0.54 0.74 0.75 0.70 0.63 0.58 0.55 0.55 0.58 0.63 0.66 0.68 0.62 0.59 0.59 0.66 0.68 0.67 0.69 0.73 0.81 0.88 0.88 0.87 0.74 0.51 0.33 0.24 0.15 0.10 0.07 0.05 0.07 0.13 0.21 0.33 0.31 0.26 0.32 0.42 0.48
0.30 0.38 0.55 0.76 0.81 0.78 0.71 0.62 0.61 0.62 0.63 0.72 0.76 0.79 0.79 0.74 0.72 0.71 0.73 0.70 0.68 0.69 0.71 0.71 0.61 0.57 0.51 0.38 0.29 0.23 0.16 0.11 0.08 0.08 0.15 0.21 0.30 0.49 0.47 0.40 0.39 0.41 0.44
0.47 0.49 0.69 0.89 0.97 0.94 0.85 0.76 0.72 0.73 0.73 0.77 0.86 0.95 0.98 0.96 0.87 0.79 0.74 0.69 0.64 0.61 0.51 0.45 0.42 0.38 0.34 0.30 0.26 0.20 0.14 0.09 0.08 0.09 0.14 0.22 0.39 0.66 0.55 0.45 0.44 0.46 0.46
0.63 0.69 0.90 1.11 1.21 1.20 1.04 0.94 0.89 0.86 0.83 0.85 0.89 0.95 1.05 1.12 1.07 0.92 0.75 0.60 0.53 0.50 0.43 0.35 0.33 0.32 0.29 0.26 0.21 0.17 0.14 0.10 0.07 0.09 0.13 0.20 0.38 0.66 0.55 0.48 0.44 0.45 0.47
0.68 0.80 1.02 1.30 1.41 1.42 1.30 1.19 1.16 1.10 1.02 0.98 0.98 1.01 1.07 1.09 1.01 0.90 0.70 0.54 0.49 0.48 0.45 0.37 0.34 0.33 0.32 0.28 0.20 0.17 0.14 0.09 0.07 0.10 0.14 0.21 0.41 0.64 0.58 0.50 0.45 0.46 0.45
0.73 0.92 1.16 1.47 1.54 1.56 1.52 1.41 1.37 1.35 1.28 1.20 1.15 1.16 1.16 1.11 0.99 0.86 0.72 0.61 0.53 0.50 0.50 0.45 0.40 0.35 0.35 0.31 0.25 0.18 0.14 0.09 0.08 0.08 0.12 0.18 0.36 0.53 0.49 0.42 0.41 0.43 0.44
0.99 1.14 1.35 1.60 1.71 1.76 1.67 1.55 1.48 1.43 1.41 1.33 1.26 1.19 1.10 1.03 0.97 0.87 0.73 0.66 0.59 0.55 0.57 0.51 0.45 0.38 0.36 0.34 0.30 0.21 0.13 0.09 0.08 0.09 0.10 0.15 0.30 0.45 0.42 0.40 0.41 0.43 0.44
1.40 1.51 1.62 1.71 1.74 1.77 1.73 1.62 1.56 1.48 1.47 1.49 1.40 1.17 1.01 0.93 0.95 0.88 0.69 0.63 0.59 0.57 0.57 0.54 0.48 0.41 0.36 0.32 0.26 0.19 0.14 0.13 0.10 0.09 0.11 0.14 0.27 0.41 0.43 0.43 0.42 0.44 0.45
1.91 1.84 1.90 1.92 1.92 1.90 1.85 1.74 1.74 1.67 1.57 1.52 1.45 1.19 1.03 1.01 0.94 0.87 0.67 0.53 0.53 0.53 0.54 0.54 0.50 0.43 0.34 0.27 0.22 0.20 0.19 0.16 0.13 0.14 0.15 0.20 0.33 0.45 0.49 0.49 0.45 0.45 0.45
2.15 2.07 2.03 2.03 1.96 1.99 1.95 1.92 1.99 1.84 1.68 1.52 1.31 1.22 1.15 1.06 0.95 0.80 0.72 0.60 0.55 0.52 0.55 0.58 0.56 0.49 0.37 0.27 0.24 0.23 0.21 0.18 0.17 0.15 0.17 0.26 0.43 0.56 0.56 0.52 0.47 0.48 0.47
2.26 2.31 2.27 2.24 2.15 2.05 2.09 1.99 1.99 1.97 1.83 1.68 1.43 1.32 1.29 1.27 1.15 1.00 0.88 0.84 0.75 0.63 0.61 0.59 0.60 0.48 0.34 0.27 0.24 0.22 0.20 0.21 0.20 0.18 0.18 0.25 0.42 0.57 0.61 0.59 0.55 0.53 0.50
2.53 2.53 2.55 2.49 2.43 2.22 2.11 2.08 2.06 2.00 1.88 1.74 1.51 1.39 1.37 1.27 1.18 1.04 0.87 0.82 0.80 0.64 0.61 0.57 0.52 0.44 0.37 0.29 0.24 0.23 0.23 0.23 0.21 0.23 0.22 0.23 0.36 0.51 0.61 0.66 0.63 0.58 0.56
2.78 2.81 2.79 2.65 2.58 2.48 2.28 2.12 2.12 2.15 2.04 1.88 1.74 1.51 1.36 1.24 1.10 1.04 0.94 0.92 0.87 0.74 0.64 0.60 0.51 0.49 0.45 0.38 0.30 0.25 0.23 0.23 0.23 0.24 0.23 0.22 0.27 0.39 0.53 0.65 0.73 0.74 0.73
2.95 3.07 3.08 2.92 2.71 2.62 2.41 2.14 2.08 2.19 2.21 2.20 1.97 1.67 1.59 1.45 1.27 1.15 1.08 1.04 0.96 0.87 0.77 0.69 0.59 0.57 0.55 0.50 0.41 0.32 0.27 0.26 0.26 0.26 0.25 0.23 0.24 0.27 0.41 0.59 0.77 0.83 0.83
2.86 3.14 3.28 3.18 3.03 2.80 2.66 2.43 2.17 2.26 2.29 2.28 2.17 1.94 1.81 1.70 1.56 1.42 1.29 1.16 1.03 0.97 0.95 0.92 0.86 0.77 0.69 0.61 0.52 0.44 0.36 0.32 0.29 0.27 0.26 0.25 0.24 0.24 0.32 0.48 0.64 0.77 0.80
2.86 3.00 3.30 3.32 3.28 3.13 2.90 2.68 2.37 2.27 2.28 2.21 2.10 2.02 1.92 1.79 1.69 1.60 1.41 1.28 1.22 1.19 1.14 1.10 1.06 0.97 0.82 0.70 0.60 0.58 0.49 0.40 0.35 0.34 0.32 0.29 0.27 0.23 0.26 0.37 0.46 0.56 0.69
2.83 2.94 3.20 3.34 3.37 3.45 3.32 3.14 2.79 2.46 2.41 2.33 2.15 1.97 1.90 1.84 1.75 1.67 1.52 1.37 1.35 1.34 1.26 1.19 1.16 1.09 0.98 0.85 0.75 0.70 0.66 0.57 0.50 0.48 0.46 0.42 0.37 0.33 0.30 0.35 0.38 0.40 0.50
3.04 3.16 3.25 3.43 3.62 3.82 3.87 3.65 3.38 2.92 2.58 2.45 2.31 2.06 1.91 1.86 1.79 1.71 1.61 1.51 1.43 1.45 1.42 1.33 1.22 1.16 1.09 1.02 0.93 0.85 0.82 0.76 0.67 0.61 0.57 0.52 0.50 0.46 0.42 0.41 0.40 0.37 0.39
3.09 3.29 3.40 3.43 3.63 3.95 3.86 3.55 3.27 2.97 2.71 2.48 2.38 2.27 2.07 1.95 1.85 1.74 1.60 1.60 1.55 1.48 1.46 1.46 1.45 1.40 1.31 1.26 1.25 1.08 0.89 0.85 0.81 0.70 0.66 0.61 0.57 0.56 0.52 0.51 0.48 0.44 0.43
2.84 3.20 3.27 3.46 3.67 3.88 3.79 3.60 3.44 3.32 3.08 2.81 2.66 2.41 2.23 2.07 1.94 1.83 1.68 1.53 1.56 1.56 1.50 1.49 1.52 1.57 1.60 1.58 1.56 1.51 1.28 1.06 0.85 0.72 0.70 0.69 0.67 0.67 0.68 0.65 0.60 0.55 0.52
2.32 2.78 3.00 3.14 3.48 3.68 3.85 4.10 4.04 3.84 3.45 2.91 2.62 2.48 2.32 2.30 2.20 2.01 1.91 1.76 1.59 1.58 1.53 1.46 1.40 1.39 1.48 1.59 1.64 1.72 1.58 1.27 0.99 0.83 0.74 0.71 0.70 0.69 0.68 0.70 0.67 0.64 0.60
1.94 2.36 2.75 3.00 3.25 3.40 3.52 3.72 3.81 3.66 3.28 2.81 2.51 2.52 2.57 2.50 2.46 2.37 2.20 2.06 1.87 1.73 1.65 1.60 1.58 1.51 1.49 1.50 1.53 1.51 1.45 1.30 1.24 1.10 0.89 0.80 0.76 0.74 0.72 0.70 0.66 0.65 0.67
1.68 2.11 2.49 2.78 3.05 3.17 3.24 3.31 3.46 3.54 3.44 3.21 2.86 2.69 2.69 2.63 2.53 2.44 2.36 2.25 2.07 1.92 1.85 1.82 1.75 1.72 1.69 1.61 1.54 1.47 1.45 1.28 1.16 1.18 1.04 0.87 0.86 0.82 0.80 0.77 0.73 0.71 0.72
1.49 1.79 2.17 2.47 2.81 3.02 3.06 3.20 3.27 3.23 3.30 3.25 2.92 2.77 2.69 2.77 2.69 2.50 2.35 2.29 2.20 2.08 1.99 1.97 1.96 1.89 1.80 1.73 1.69 1.62 1.60 1.53 1.32 1.27 1.20 1.01 0.96 0.89 0.87 0.85 0.85 0.84 0.83